Year,Month,Day,Hour,Minute,Value (Times are PST for temperature in C)
2015,07,04,00,00,19.20
2015,07,04,00,01,19.10
2015,07,04,00,02,18.90
2015,07,04,00,03,18.70
2015,07,04,00,04,18.40
2015,07,04,00,05,18.30
2015,07,04,00,06,18.10
2015,07,04,00,07,18.00
2015,07,04,00,08,17.90
2015,07,04,00,09,17.90
2015,07,04,00,10,17.80
2015,07,04,00,11,17.80
2015,07,04,00,12,17.80
2015,07,04,00,13,17.70
2015,07,04,00,14,17.70
2015,07,04,00,15,17.70
2015,07,04,00,16,17.70
2015,07,04,00,17,17.70
2015,07,04,00,18,17.80
2015,07,04,00,19,18.00
2015,07,04,00,20,18.10
2015,07,04,00,21,18.30
2015,07,04,00,22,18.40
2015,07,04,00,23,18.50
2015,07,04,00,24,18.60
2015,07,04,00,25,18.60
2015,07,04,00,26,18.60
2015,07,04,00,27,18.50
2015,07,04,00,28,18.50
2015,07,04,00,29,18.40
2015,07,04,00,30,18.30
2015,07,04,00,31,18.40
2015,07,04,00,32,18.40
2015,07,04,00,33,18.40
2015,07,04,00,34,18.40
2015,07,04,00,35,18.30
2015,07,04,00,36,18.30
2015,07,04,00,37,18.30
2015,07,04,00,38,18.30
2015,07,04,00,39,18.30
2015,07,04,00,40,18.30
2015,07,04,00,41,18.30
2015,07,04,00,42,18.30
2015,07,04,00,43,18.20
2015,07,04,00,44,18.20
2015,07,04,00,45,18.10
2015,07,04,00,46,18.10
2015,07,04,00,47,18.00
2015,07,04,00,48,18.00
2015,07,04,00,49,17.90
2015,07,04,00,50,17.90
2015,07,04,00,51,17.80
2015,07,04,00,52,17.80
2015,07,04,00,53,17.70
2015,07,04,00,54,17.60
2015,07,04,00,55,17.60
2015,07,04,00,56,17.50
2015,07,04,00,57,17.50
2015,07,04,00,58,17.40
2015,07,04,00,59,17.40
2015,07,04,01,00,17.30
2015,07,04,01,01,17.30
2015,07,04,01,02,17.30
2015,07,04,01,03,17.30
2015,07,04,01,04,17.30
2015,07,04,01,05,17.30
2015,07,04,01,06,17.30
2015,07,04,01,07,17.30
2015,07,04,01,08,17.30
2015,07,04,01,09,17.20
2015,07,04,01,10,17.20
2015,07,04,01,11,17.20
2015,07,04,01,12,17.10
2015,07,04,01,13,17.20
2015,07,04,01,14,17.20
2015,07,04,01,15,17.20
2015,07,04,01,16,17.20
2015,07,04,01,17,17.20
2015,07,04,01,18,17.30
2015,07,04,01,19,17.30
2015,07,04,01,20,17.30
2015,07,04,01,21,17.40
2015,07,04,01,22,17.40
2015,07,04,01,23,17.50
2015,07,04,01,24,17.50
2015,07,04,01,25,17.50
2015,07,04,01,26,17.50
2015,07,04,01,27,17.50
2015,07,04,01,28,17.50
2015,07,04,01,29,17.40
2015,07,04,01,30,17.40
2015,07,04,01,31,17.40
2015,07,04,01,32,17.40
2015,07,04,01,33,17.40
2015,07,04,01,34,17.40
2015,07,04,01,35,17.40
2015,07,04,01,36,17.40
2015,07,04,01,37,17.40
2015,07,04,01,38,17.40
2015,07,04,01,39,17.40
2015,07,04,01,40,17.40
2015,07,04,01,41,17.40
2015,07,04,01,42,17.40
2015,07,04,01,43,17.40
2015,07,04,01,44,17.30
2015,07,04,01,45,17.40
2015,07,04,01,46,17.40
2015,07,04,01,47,17.40
2015,07,04,01,48,17.40
2015,07,04,01,49,17.40
2015,07,04,01,50,17.50
2015,07,04,01,51,17.60
2015,07,04,01,52,17.60
2015,07,04,01,53,17.60
2015,07,04,01,54,17.60
2015,07,04,01,55,17.60
2015,07,04,01,56,17.70
2015,07,04,01,57,17.70
2015,07,04,01,58,17.70
2015,07,04,01,59,17.70
2015,07,04,02,00,17.70
2015,07,04,02,01,17.70
2015,07,04,02,02,17.70
2015,07,04,02,03,17.60
2015,07,04,02,04,17.60
2015,07,04,02,05,17.60
2015,07,04,02,06,17.50
2015,07,04,02,07,17.50
2015,07,04,02,08,17.40
2015,07,04,02,09,17.30
2015,07,04,02,10,17.20
2015,07,04,02,11,17.20
2015,07,04,02,12,17.10
2015,07,04,02,13,17.00
2015,07,04,02,14,16.90
2015,07,04,02,15,16.80
2015,07,04,02,16,16.80
2015,07,04,02,17,16.80
2015,07,04,02,18,16.70
2015,07,04,02,19,16.70
2015,07,04,02,20,16.70
2015,07,04,02,21,16.70
2015,07,04,02,22,16.60
2015,07,04,02,23,16.50
2015,07,04,02,24,16.40
2015,07,04,02,25,16.40
2015,07,04,02,26,16.30
2015,07,04,02,27,16.30
2015,07,04,02,28,16.30
2015,07,04,02,29,16.20
2015,07,04,02,30,16.20
2015,07,04,02,31,16.20
2015,07,04,02,32,16.10
2015,07,04,02,33,16.00
2015,07,04,02,34,16.00
2015,07,04,02,35,15.90
2015,07,04,02,36,15.80
2015,07,04,02,37,15.70
2015,07,04,02,38,15.60
2015,07,04,02,39,15.60
2015,07,04,02,40,15.60
2015,07,04,02,41,15.60
2015,07,04,02,42,15.50
2015,07,04,02,43,15.50
2015,07,04,02,44,15.40
2015,07,04,02,45,15.40
2015,07,04,02,46,15.40
2015,07,04,02,47,15.40
2015,07,04,02,48,15.40
2015,07,04,02,49,15.40
2015,07,04,02,50,15.40
2015,07,04,02,51,15.40
2015,07,04,02,52,15.40
2015,07,04,02,53,15.40
2015,07,04,02,54,15.40
2015,07,04,02,55,15.50
2015,07,04,02,56,15.60
2015,07,04,02,57,15.70
2015,07,04,02,58,15.80
2015,07,04,02,59,15.90
2015,07,04,03,00,16.00
2015,07,04,03,01,16.10
2015,07,04,03,02,16.20
2015,07,04,03,03,16.30
2015,07,04,03,04,16.50
2015,07,04,03,05,16.60
2015,07,04,03,06,16.70
2015,07,04,03,07,16.70
2015,07,04,03,08,16.70
2015,07,04,03,09,16.70
2015,07,04,03,10,16.80
2015,07,04,03,11,16.80
2015,07,04,03,12,16.80
2015,07,04,03,13,16.80
2015,07,04,03,14,16.90
2015,07,04,03,15,16.90
2015,07,04,03,16,16.90
2015,07,04,03,17,16.90
2015,07,04,03,18,16.90
2015,07,04,03,19,16.90
2015,07,04,03,20,17.00
2015,07,04,03,21,17.00
2015,07,04,03,22,17.00
2015,07,04,03,23,17.00
2015,07,04,03,24,17.10
2015,07,04,03,25,17.10
2015,07,04,03,26,17.10
2015,07,04,03,27,17.00
2015,07,04,03,28,17.00
2015,07,04,03,29,16.80
2015,07,04,03,30,16.60
2015,07,04,03,31,16.40
2015,07,04,03,32,16.20
2015,07,04,03,33,16.10
2015,07,04,03,34,15.90
2015,07,04,03,35,15.80
2015,07,04,03,36,15.70
2015,07,04,03,37,15.70
2015,07,04,03,38,15.60
2015,07,04,03,39,15.60
2015,07,04,03,40,15.50
2015,07,04,03,41,15.40
2015,07,04,03,42,15.40
2015,07,04,03,43,15.30
2015,07,04,03,44,15.30
2015,07,04,03,45,15.30
2015,07,04,03,46,15.30
2015,07,04,03,47,15.30
2015,07,04,03,48,15.30
2015,07,04,03,49,15.20
2015,07,04,03,50,15.20
2015,07,04,03,51,15.10
2015,07,04,03,52,15.10
2015,07,04,03,53,15.10
2015,07,04,03,54,15.10
2015,07,04,03,55,15.10
2015,07,04,03,56,15.10
2015,07,04,03,57,15.10
2015,07,04,03,58,15.10
2015,07,04,03,59,15.00
2015,07,04,04,00,14.80
2015,07,04,04,01,14.70
2015,07,04,04,02,14.70
2015,07,04,04,03,14.70
2015,07,04,04,04,14.70
2015,07,04,04,05,14.70
2015,07,04,04,06,14.70
2015,07,04,04,07,14.70
2015,07,04,04,08,14.70
2015,07,04,04,09,14.80
2015,07,04,04,10,14.80
2015,07,04,04,11,14.90
2015,07,04,04,12,15.00
2015,07,04,04,13,15.10
2015,07,04,04,14,15.20
2015,07,04,04,15,15.30
2015,07,04,04,16,15.40
2015,07,04,04,17,15.50
2015,07,04,04,18,15.60
2015,07,04,04,19,15.70
2015,07,04,04,20,15.80
2015,07,04,04,21,15.90
2015,07,04,04,22,16.00
2015,07,04,04,23,16.00
2015,07,04,04,24,16.10
2015,07,04,04,25,16.10
2015,07,04,04,26,16.20
2015,07,04,04,27,16.20
2015,07,04,04,28,16.20
2015,07,04,04,29,16.30
2015,07,04,04,30,16.30
2015,07,04,04,31,16.40
2015,07,04,04,32,16.40
2015,07,04,04,33,16.40
2015,07,04,04,34,16.50
2015,07,04,04,35,16.50
2015,07,04,04,36,16.50
2015,07,04,04,37,16.40
2015,07,04,04,38,16.40
2015,07,04,04,39,16.40
2015,07,04,04,40,16.40
2015,07,04,04,41,16.40
2015,07,04,04,42,16.40
2015,07,04,04,43,16.30
2015,07,04,04,44,16.30
2015,07,04,04,45,16.30
2015,07,04,04,46,16.30
2015,07,04,04,47,16.10
2015,07,04,04,48,16.00
2015,07,04,04,49,15.80
2015,07,04,04,50,15.70
2015,07,04,04,51,15.50
2015,07,04,04,52,15.40
2015,07,04,04,53,15.40
2015,07,04,04,54,15.30
2015,07,04,04,55,15.20
2015,07,04,04,56,15.20
2015,07,04,04,57,15.10
2015,07,04,04,58,15.10
2015,07,04,04,59,15.10
2015,07,04,05,00,15.00
2015,07,04,05,01,15.00
2015,07,04,05,02,15.00
2015,07,04,05,03,15.00
2015,07,04,05,04,15.10
2015,07,04,05,05,15.10
2015,07,04,05,06,15.10
2015,07,04,05,07,15.10
2015,07,04,05,08,15.20
2015,07,04,05,09,15.40
2015,07,04,05,10,15.60
2015,07,04,05,11,15.80
2015,07,04,05,12,16.00
2015,07,04,05,13,16.10
2015,07,04,05,14,16.20
2015,07,04,05,15,16.30
2015,07,04,05,16,16.30
2015,07,04,05,17,16.40
2015,07,04,05,18,16.40
2015,07,04,05,19,16.40
2015,07,04,05,20,16.40
2015,07,04,05,21,16.40
2015,07,04,05,22,16.40
2015,07,04,05,23,16.40
2015,07,04,05,24,16.30
2015,07,04,05,25,16.30
2015,07,04,05,26,16.30
2015,07,04,05,27,16.40
2015,07,04,05,28,16.40
2015,07,04,05,29,16.40
2015,07,04,05,30,16.40
2015,07,04,05,31,16.40
2015,07,04,05,32,16.40
2015,07,04,05,33,16.40
2015,07,04,05,34,16.30
2015,07,04,05,35,16.30
2015,07,04,05,36,16.30
2015,07,04,05,37,16.30
2015,07,04,05,38,16.30
2015,07,04,05,39,16.30
2015,07,04,05,40,16.30
2015,07,04,05,41,16.30
2015,07,04,05,42,16.30
2015,07,04,05,43,16.30
2015,07,04,05,44,16.30
2015,07,04,05,45,16.20
2015,07,04,05,46,16.20
2015,07,04,05,47,16.20
2015,07,04,05,48,16.20
2015,07,04,05,49,16.20
2015,07,04,05,50,16.20
2015,07,04,05,51,16.20
2015,07,04,05,52,16.20
2015,07,04,05,53,16.20
2015,07,04,05,54,16.20
2015,07,04,05,55,16.20
2015,07,04,05,56,16.20
2015,07,04,05,57,16.20
2015,07,04,05,58,16.20
2015,07,04,05,59,16.20
2015,07,04,06,00,16.20
2015,07,04,06,01,16.20
2015,07,04,06,02,16.20
2015,07,04,06,03,16.20
2015,07,04,06,04,16.20
2015,07,04,06,05,16.20
2015,07,04,06,06,16.20
2015,07,04,06,07,16.20
2015,07,04,06,08,16.20
2015,07,04,06,09,16.20
2015,07,04,06,10,16.20
2015,07,04,06,11,16.20
2015,07,04,06,12,16.20
2015,07,04,06,13,16.30
2015,07,04,06,14,16.30
2015,07,04,06,15,16.30
2015,07,04,06,16,16.30
2015,07,04,06,17,16.30
2015,07,04,06,18,16.30
2015,07,04,06,19,16.30
2015,07,04,06,20,16.30
2015,07,04,06,21,16.30
2015,07,04,06,22,16.40
2015,07,04,06,23,16.40
2015,07,04,06,24,16.40
2015,07,04,06,25,16.40
2015,07,04,06,26,16.40
2015,07,04,06,27,16.50
2015,07,04,06,28,16.50
2015,07,04,06,29,16.50
2015,07,04,06,30,16.50
2015,07,04,06,31,16.60
2015,07,04,06,32,16.60
2015,07,04,06,33,16.60
2015,07,04,06,34,16.60
2015,07,04,06,35,16.60
2015,07,04,06,36,16.70
2015,07,04,06,37,16.70
2015,07,04,06,38,16.70
2015,07,04,06,39,16.80
2015,07,04,06,40,16.80
2015,07,04,06,41,16.80
2015,07,04,06,42,16.90
2015,07,04,06,43,16.90
2015,07,04,06,44,16.90
2015,07,04,06,45,16.90
2015,07,04,06,46,17.00
2015,07,04,06,47,17.00
2015,07,04,06,48,17.00
2015,07,04,06,49,17.10
2015,07,04,06,50,17.10
2015,07,04,06,51,17.10
2015,07,04,06,52,17.10
2015,07,04,06,53,17.20
2015,07,04,06,54,17.20
2015,07,04,06,55,17.20
2015,07,04,06,56,17.20
2015,07,04,06,57,17.30
2015,07,04,06,58,17.30
2015,07,04,06,59,17.30
2015,07,04,07,00,17.40
2015,07,04,07,01,17.40
2015,07,04,07,02,17.40
2015,07,04,07,03,17.40
2015,07,04,07,04,17.50
2015,07,04,07,05,17.50
2015,07,04,07,06,17.60
2015,07,04,07,07,17.60
2015,07,04,07,08,17.60
2015,07,04,07,09,17.60
2015,07,04,07,10,17.70
2015,07,04,07,11,17.70
2015,07,04,07,12,17.70
2015,07,04,07,13,17.70
2015,07,04,07,14,17.70
2015,07,04,07,15,17.80
2015,07,04,07,16,17.80
2015,07,04,07,17,17.80
2015,07,04,07,18,17.80
2015,07,04,07,19,17.90
2015,07,04,07,20,17.90
2015,07,04,07,21,18.00
2015,07,04,07,22,18.00
2015,07,04,07,23,18.10
2015,07,04,07,24,18.10
2015,07,04,07,25,18.10
2015,07,04,07,26,18.20
2015,07,04,07,27,18.20
2015,07,04,07,28,18.30
2015,07,04,07,29,18.30
2015,07,04,07,30,18.30
2015,07,04,07,31,18.30
2015,07,04,07,32,18.40
2015,07,04,07,33,18.40
2015,07,04,07,34,18.50
2015,07,04,07,35,18.50
2015,07,04,07,36,18.50
2015,07,04,07,37,18.50
2015,07,04,07,38,18.50
2015,07,04,07,39,18.50
2015,07,04,07,40,18.60
2015,07,04,07,41,18.60
2015,07,04,07,42,18.60
2015,07,04,07,43,18.60
2015,07,04,07,44,18.70
2015,07,04,07,45,18.70
2015,07,04,07,46,18.70
2015,07,04,07,47,18.70
2015,07,04,07,48,18.80
2015,07,04,07,49,18.80
2015,07,04,07,50,18.80
2015,07,04,07,51,18.80
2015,07,04,07,52,18.80
2015,07,04,07,53,18.90
2015,07,04,07,54,18.90
2015,07,04,07,55,18.90
2015,07,04,07,56,18.90
2015,07,04,07,57,19.00
2015,07,04,07,58,19.00
2015,07,04,07,59,19.10
2015,07,04,08,00,19.10
2015,07,04,08,01,19.10
2015,07,04,08,02,19.10
2015,07,04,08,03,19.20
2015,07,04,08,04,19.10
2015,07,04,08,05,19.20
2015,07,04,08,06,19.20
2015,07,04,08,07,19.20
2015,07,04,08,08,19.20
2015,07,04,08,09,19.30
2015,07,04,08,10,19.30
2015,07,04,08,11,19.30
2015,07,04,08,12,19.30
2015,07,04,08,13,19.40
2015,07,04,08,14,19.40
2015,07,04,08,15,19.40
2015,07,04,08,16,19.40
2015,07,04,08,17,19.40
2015,07,04,08,18,19.40
2015,07,04,08,19,19.40
2015,07,04,08,20,19.40
2015,07,04,08,21,19.30
2015,07,04,08,22,19.30
2015,07,04,08,23,19.30
2015,07,04,08,24,19.30
2015,07,04,08,25,19.30
2015,07,04,08,26,19.30
2015,07,04,08,27,19.30
2015,07,04,08,28,19.30
2015,07,04,08,29,19.30
2015,07,04,08,30,19.30
2015,07,04,08,31,19.30
2015,07,04,08,32,19.40
2015,07,04,08,33,19.40
2015,07,04,08,34,19.50
2015,07,04,08,35,19.50
2015,07,04,08,36,19.60
2015,07,04,08,37,19.60
2015,07,04,08,38,19.60
2015,07,04,08,39,19.70
2015,07,04,08,40,19.70
2015,07,04,08,41,19.70
2015,07,04,08,42,19.80
2015,07,04,08,43,19.80
2015,07,04,08,44,19.80
2015,07,04,08,45,19.80
2015,07,04,08,46,19.90
2015,07,04,08,47,19.90
2015,07,04,08,48,20.00
2015,07,04,08,49,20.00
2015,07,04,08,50,20.00
2015,07,04,08,51,20.00
2015,07,04,08,52,19.90
2015,07,04,08,53,19.90
2015,07,04,08,54,19.90
2015,07,04,08,55,19.80
2015,07,04,08,56,19.80
2015,07,04,08,57,19.70
2015,07,04,08,58,19.70
2015,07,04,08,59,19.60
2015,07,04,09,00,19.60
2015,07,04,09,01,19.50
2015,07,04,09,02,19.50
2015,07,04,09,03,19.50
2015,07,04,09,04,19.40
2015,07,04,09,05,19.40
2015,07,04,09,06,19.40
2015,07,04,09,07,19.50
2015,07,04,09,08,19.50
2015,07,04,09,09,19.50
2015,07,04,09,10,19.40
2015,07,04,09,11,19.40
2015,07,04,09,12,19.50
2015,07,04,09,13,19.50
2015,07,04,09,14,19.60
2015,07,04,09,15,19.70
2015,07,04,09,16,19.70
2015,07,04,09,17,19.80
2015,07,04,09,18,19.90
2015,07,04,09,19,19.90
2015,07,04,09,20,20.00
2015,07,04,09,21,20.10
2015,07,04,09,22,20.10
2015,07,04,09,23,20.10
2015,07,04,09,24,20.10
2015,07,04,09,25,20.20
2015,07,04,09,26,20.20
2015,07,04,09,27,20.20
2015,07,04,09,28,20.20
2015,07,04,09,29,20.20
2015,07,04,09,30,20.20
2015,07,04,09,31,20.20
2015,07,04,09,32,20.20
2015,07,04,09,33,20.20
2015,07,04,09,34,20.30
2015,07,04,09,35,20.30
2015,07,04,09,36,20.40
2015,07,04,09,37,20.40
2015,07,04,09,38,20.50
2015,07,04,09,39,20.50
2015,07,04,09,40,20.50
2015,07,04,09,41,20.50
2015,07,04,09,42,20.50
2015,07,04,09,43,20.50
2015,07,04,09,44,20.60
2015,07,04,09,45,20.50
2015,07,04,09,46,20.50
2015,07,04,09,47,20.30
2015,07,04,09,48,20.30
2015,07,04,09,49,20.10
2015,07,04,09,50,20.10
2015,07,04,09,51,20.10
2015,07,04,09,52,20.10
2015,07,04,09,53,20.10
2015,07,04,09,54,20.10
2015,07,04,09,55,20.10
2015,07,04,09,56,20.10
2015,07,04,09,57,20.20
2015,07,04,09,58,20.20
2015,07,04,09,59,20.20
2015,07,04,10,00,20.10
2015,07,04,10,01,20.00
2015,07,04,10,02,20.00
2015,07,04,10,03,19.90
2015,07,04,10,04,19.90
2015,07,04,10,05,20.00
2015,07,04,10,06,20.00
2015,07,04,10,07,19.90
2015,07,04,10,08,19.90
2015,07,04,10,09,19.90
2015,07,04,10,10,20.00
2015,07,04,10,11,20.10
2015,07,04,10,12,20.20
2015,07,04,10,13,20.20
2015,07,04,10,14,20.10
2015,07,04,10,15,20.10
2015,07,04,10,16,20.20
2015,07,04,10,17,20.20
2015,07,04,10,18,20.30
2015,07,04,10,19,20.40
2015,07,04,10,20,20.40
2015,07,04,10,21,20.50
2015,07,04,10,22,20.60
2015,07,04,10,23,20.60
2015,07,04,10,24,20.60
2015,07,04,10,25,20.60
2015,07,04,10,26,20.60
2015,07,04,10,27,20.60
2015,07,04,10,28,20.70
2015,07,04,10,29,20.70
2015,07,04,10,30,20.80
2015,07,04,10,31,20.90
2015,07,04,10,32,21.00
2015,07,04,10,33,21.10
2015,07,04,10,34,21.10
2015,07,04,10,35,21.00
2015,07,04,10,36,20.90
2015,07,04,10,37,20.80
2015,07,04,10,38,20.70
2015,07,04,10,39,20.70
2015,07,04,10,40,20.70
2015,07,04,10,41,20.70
2015,07,04,10,42,20.80
2015,07,04,10,43,20.90
2015,07,04,10,44,21.00
2015,07,04,10,45,21.10
2015,07,04,10,46,21.30
2015,07,04,10,47,21.40
2015,07,04,10,48,21.50
2015,07,04,10,49,21.60
2015,07,04,10,50,21.70
2015,07,04,10,51,21.80
2015,07,04,10,52,21.90
2015,07,04,10,53,21.90
2015,07,04,10,54,22.00
2015,07,04,10,55,22.00
2015,07,04,10,56,22.10
2015,07,04,10,57,22.20
2015,07,04,10,58,22.10
2015,07,04,10,59,22.10
2015,07,04,11,00,22.10
2015,07,04,11,01,22.10
2015,07,04,11,02,22.00
2015,07,04,11,03,22.00
2015,07,04,11,04,22.00
2015,07,04,11,05,22.10
2015,07,04,11,06,22.10
2015,07,04,11,07,22.00
2015,07,04,11,08,22.00
2015,07,04,11,09,22.00
2015,07,04,11,10,22.00
2015,07,04,11,11,22.00
2015,07,04,11,12,21.90
2015,07,04,11,13,21.80
2015,07,04,11,14,21.60
2015,07,04,11,15,21.40
2015,07,04,11,16,21.40
2015,07,04,11,17,21.50
2015,07,04,11,18,21.50
2015,07,04,11,19,21.60
2015,07,04,11,20,21.60
2015,07,04,11,21,21.60
2015,07,04,11,22,21.60
2015,07,04,11,23,21.60
2015,07,04,11,24,21.60
2015,07,04,11,25,21.60
2015,07,04,11,26,21.50
2015,07,04,11,27,21.40
2015,07,04,11,28,21.30
2015,07,04,11,29,21.40
2015,07,04,11,30,21.40
2015,07,04,11,31,21.40
2015,07,04,11,32,21.50
2015,07,04,11,33,21.60
2015,07,04,11,34,21.70
2015,07,04,11,35,21.80
2015,07,04,11,36,21.90
2015,07,04,11,37,22.00
2015,07,04,11,38,22.20
2015,07,04,11,39,22.30
2015,07,04,11,40,22.30
2015,07,04,11,41,22.40
2015,07,04,11,42,22.50
2015,07,04,11,43,22.60
2015,07,04,11,44,22.70
2015,07,04,11,45,22.70
2015,07,04,11,46,22.80
2015,07,04,11,47,22.80
2015,07,04,11,48,22.80
2015,07,04,11,49,22.90
2015,07,04,11,50,22.90
2015,07,04,11,51,23.00
2015,07,04,11,52,23.10
2015,07,04,11,53,23.10
2015,07,04,11,54,23.20
2015,07,04,11,55,23.20
2015,07,04,11,56,23.20
2015,07,04,11,57,23.20
2015,07,04,11,58,23.30
2015,07,04,11,59,23.30
2015,07,04,12,00,23.40
2015,07,04,12,01,23.40
2015,07,04,12,02,23.30
2015,07,04,12,03,23.30
2015,07,04,12,04,23.30
2015,07,04,12,05,23.30
2015,07,04,12,06,23.40
2015,07,04,12,07,23.40
2015,07,04,12,08,23.40
2015,07,04,12,09,23.40
2015,07,04,12,10,23.40
2015,07,04,12,11,23.40
2015,07,04,12,12,23.40
2015,07,04,12,13,23.40
2015,07,04,12,14,23.50
2015,07,04,12,15,23.60
2015,07,04,12,16,23.70
2015,07,04,12,17,23.70
2015,07,04,12,18,23.80
2015,07,04,12,19,23.80
2015,07,04,12,20,23.90
2015,07,04,12,21,23.90
2015,07,04,12,22,24.00
2015,07,04,12,23,24.00
2015,07,04,12,24,24.00
2015,07,04,12,25,23.90
2015,07,04,12,26,23.90
2015,07,04,12,27,23.90
2015,07,04,12,28,23.80
2015,07,04,12,29,23.80
2015,07,04,12,30,23.80
2015,07,04,12,31,23.90
2015,07,04,12,32,24.00
2015,07,04,12,33,24.00
2015,07,04,12,34,24.00
2015,07,04,12,35,24.10
2015,07,04,12,36,24.20
2015,07,04,12,37,24.30
2015,07,04,12,38,24.30
2015,07,04,12,39,24.20
2015,07,04,12,40,24.10
2015,07,04,12,41,23.90
2015,07,04,12,42,23.80
2015,07,04,12,43,23.70
2015,07,04,12,44,23.70
2015,07,04,12,45,23.70
2015,07,04,12,46,23.70
2015,07,04,12,47,23.70
2015,07,04,12,48,23.70
2015,07,04,12,49,23.70
2015,07,04,12,50,23.80
2015,07,04,12,51,23.90
2015,07,04,12,52,23.90
2015,07,04,12,53,23.90
2015,07,04,12,54,24.00
2015,07,04,12,55,24.20
2015,07,04,12,56,24.20
2015,07,04,12,57,24.30
2015,07,04,12,58,24.30
2015,07,04,12,59,24.40
2015,07,04,13,00,24.50
2015,07,04,13,01,24.60
2015,07,04,13,02,24.70
2015,07,04,13,03,24.80
2015,07,04,13,04,24.90
2015,07,04,13,05,25.00
2015,07,04,13,06,25.10
2015,07,04,13,07,25.20
2015,07,04,13,08,25.30
2015,07,04,13,09,25.30
2015,07,04,13,10,25.20
2015,07,04,13,11,25.20
2015,07,04,13,12,25.10
2015,07,04,13,13,25.00
2015,07,04,13,14,25.00
2015,07,04,13,15,24.90
2015,07,04,13,16,24.90
2015,07,04,13,17,24.80
2015,07,04,13,18,24.80
2015,07,04,13,19,24.80
2015,07,04,13,20,24.80
2015,07,04,13,21,24.90
2015,07,04,13,22,24.90
2015,07,04,13,23,24.90
2015,07,04,13,24,24.90
2015,07,04,13,25,24.90
2015,07,04,13,26,24.90
2015,07,04,13,27,24.90
2015,07,04,13,28,24.90
2015,07,04,13,29,24.90
2015,07,04,13,30,25.00
2015,07,04,13,31,25.00
2015,07,04,13,32,25.00
2015,07,04,13,33,25.00
2015,07,04,13,34,24.90
2015,07,04,13,35,25.00
2015,07,04,13,36,25.00
2015,07,04,13,37,25.00
2015,07,04,13,38,25.00
2015,07,04,13,39,25.00
2015,07,04,13,40,24.90
2015,07,04,13,41,24.80
2015,07,04,13,42,24.80
2015,07,04,13,43,24.90
2015,07,04,13,44,25.00
2015,07,04,13,45,25.00
2015,07,04,13,46,25.10
2015,07,04,13,47,25.30
2015,07,04,13,48,25.40
2015,07,04,13,49,25.40
2015,07,04,13,50,25.50
2015,07,04,13,51,25.60
2015,07,04,13,52,25.70
2015,07,04,13,53,25.80
2015,07,04,13,54,25.80
2015,07,04,13,55,25.80
2015,07,04,13,56,25.80
2015,07,04,13,57,25.90
2015,07,04,13,58,25.80
2015,07,04,13,59,25.70
2015,07,04,14,00,25.70
2015,07,04,14,01,25.70
2015,07,04,14,02,25.60
2015,07,04,14,03,25.60
2015,07,04,14,04,25.50
2015,07,04,14,05,25.60
2015,07,04,14,06,25.70
2015,07,04,14,07,25.70
2015,07,04,14,08,25.80
2015,07,04,14,09,25.90
2015,07,04,14,10,26.00
2015,07,04,14,11,26.10
2015,07,04,14,12,26.20
2015,07,04,14,13,26.30
2015,07,04,14,14,26.20
2015,07,04,14,15,26.20
2015,07,04,14,16,26.20
2015,07,04,14,17,26.20
2015,07,04,14,18,26.30
2015,07,04,14,19,26.40
2015,07,04,14,20,26.50
2015,07,04,14,21,26.60
2015,07,04,14,22,26.70
2015,07,04,14,23,26.70
2015,07,04,14,24,26.70
2015,07,04,14,25,26.80
2015,07,04,14,26,26.80
2015,07,04,14,27,26.90
2015,07,04,14,28,26.90
2015,07,04,14,29,27.00
2015,07,04,14,30,27.10
2015,07,04,14,31,27.20
2015,07,04,14,32,27.20
2015,07,04,14,33,27.20
2015,07,04,14,34,27.20
2015,07,04,14,35,27.30
2015,07,04,14,36,27.30
2015,07,04,14,37,27.20
2015,07,04,14,38,27.20
2015,07,04,14,39,27.30
2015,07,04,14,40,27.30
2015,07,04,14,41,27.30
2015,07,04,14,42,27.30
2015,07,04,14,43,27.30
2015,07,04,14,44,27.30
2015,07,04,14,45,27.30
2015,07,04,14,46,27.40
2015,07,04,14,47,27.40
2015,07,04,14,48,27.40
2015,07,04,14,49,27.40
2015,07,04,14,50,27.30
2015,07,04,14,51,27.30
2015,07,04,14,52,27.30
2015,07,04,14,53,27.30
2015,07,04,14,54,27.30
2015,07,04,14,55,27.30
2015,07,04,14,56,27.30
2015,07,04,14,57,27.30
2015,07,04,14,58,27.40
2015,07,04,14,59,27.40
2015,07,04,15,00,27.40
2015,07,04,15,01,27.40
2015,07,04,15,02,27.40
2015,07,04,15,03,27.30
2015,07,04,15,04,27.30
2015,07,04,15,05,27.30
2015,07,04,15,06,27.40
2015,07,04,15,07,27.50
2015,07,04,15,08,27.50
2015,07,04,15,09,27.50
2015,07,04,15,10,27.50
2015,07,04,15,11,27.40
2015,07,04,15,12,27.40
2015,07,04,15,13,27.40
2015,07,04,15,14,27.40
2015,07,04,15,15,27.40
2015,07,04,15,16,27.40
2015,07,04,15,17,27.40
2015,07,04,15,18,27.40
2015,07,04,15,19,27.40
2015,07,04,15,20,27.40
2015,07,04,15,21,27.40
2015,07,04,15,22,27.40
2015,07,04,15,23,27.50
2015,07,04,15,24,27.60
2015,07,04,15,25,27.60
2015,07,04,15,26,27.60
2015,07,04,15,27,27.50
2015,07,04,15,28,27.40
2015,07,04,15,29,27.30
2015,07,04,15,30,27.20
2015,07,04,15,31,27.10
2015,07,04,15,32,27.00
2015,07,04,15,33,26.90
2015,07,04,15,34,26.90
2015,07,04,15,35,26.90
2015,07,04,15,36,26.90
2015,07,04,15,37,27.00
2015,07,04,15,38,27.00
2015,07,04,15,39,27.10
2015,07,04,15,40,27.20
2015,07,04,15,41,27.20
2015,07,04,15,42,27.30
2015,07,04,15,43,27.20
2015,07,04,15,44,27.20
2015,07,04,15,45,27.30
2015,07,04,15,46,27.40
2015,07,04,15,47,27.40
2015,07,04,15,48,27.50
2015,07,04,15,49,27.60
2015,07,04,15,50,27.60
2015,07,04,15,51,27.50
2015,07,04,15,52,27.50
2015,07,04,15,53,27.50
2015,07,04,15,54,27.50
2015,07,04,15,55,27.50
2015,07,04,15,56,27.60
2015,07,04,15,57,27.60
2015,07,04,15,58,27.60
2015,07,04,15,59,27.60
2015,07,04,16,00,27.60
2015,07,04,16,01,27.60
2015,07,04,16,02,27.70
2015,07,04,16,03,27.70
2015,07,04,16,04,27.80
2015,07,04,16,05,27.90
2015,07,04,16,06,27.90
2015,07,04,16,07,27.90
2015,07,04,16,08,27.80
2015,07,04,16,09,27.80
2015,07,04,16,10,27.80
2015,07,04,16,11,27.70
2015,07,04,16,12,27.60
2015,07,04,16,13,27.60
2015,07,04,16,14,27.70
2015,07,04,16,15,27.60
2015,07,04,16,16,27.60
2015,07,04,16,17,27.50
2015,07,04,16,18,27.40
2015,07,04,16,19,27.40
2015,07,04,16,20,27.40
2015,07,04,16,21,27.40
2015,07,04,16,22,27.60
2015,07,04,16,23,27.60
2015,07,04,16,24,27.70
2015,07,04,16,25,27.70
2015,07,04,16,26,27.70
2015,07,04,16,27,27.70
2015,07,04,16,28,27.70
2015,07,04,16,29,27.70
2015,07,04,16,30,27.70
2015,07,04,16,31,27.70
2015,07,04,16,32,27.70
2015,07,04,16,33,27.70
2015,07,04,16,34,27.70
2015,07,04,16,35,27.80
2015,07,04,16,36,27.80
2015,07,04,16,37,27.80
2015,07,04,16,38,27.80
2015,07,04,16,39,27.80
2015,07,04,16,40,27.80
2015,07,04,16,41,27.80
2015,07,04,16,42,27.80
2015,07,04,16,43,27.80
2015,07,04,16,44,27.90
2015,07,04,16,45,27.90
2015,07,04,16,46,27.90
2015,07,04,16,47,27.90
2015,07,04,16,48,28.00
2015,07,04,16,49,28.00
2015,07,04,16,50,28.00
2015,07,04,16,51,28.10
2015,07,04,16,52,28.10
2015,07,04,16,53,28.10
2015,07,04,16,54,28.00
2015,07,04,16,55,28.10
2015,07,04,16,56,28.00
2015,07,04,16,57,28.00
2015,07,04,16,58,28.00
2015,07,04,16,59,27.90
2015,07,04,17,00,27.90
2015,07,04,17,01,27.90
2015,07,04,17,02,27.90
2015,07,04,17,03,27.90
2015,07,04,17,04,27.90
2015,07,04,17,05,27.90
2015,07,04,17,06,27.80
2015,07,04,17,07,27.80
2015,07,04,17,08,27.80
2015,07,04,17,09,27.80
2015,07,04,17,10,27.90
2015,07,04,17,11,27.90
2015,07,04,17,12,27.90
2015,07,04,17,13,27.90
2015,07,04,17,14,27.90
2015,07,04,17,15,27.80
2015,07,04,17,16,27.80
2015,07,04,17,17,27.70
2015,07,04,17,18,27.70
2015,07,04,17,19,27.60